Sigfox identifier Datetime Temperature Humidity SNR
003BB141 2018-10-09 08:40:36 20.9 37 13.2
003BB141 2018-10-09 07:39:19 20.9 37 13.1
003BB141 2018-10-09 06:37:57 21 37 13
003BB141 2018-10-09 05:36:37 21 37 12.9
003BB141 2018-10-09 04:35:18 21 37 17.7
003BB141 2018-10-09 01:31:16 20.8 37 17.4
003BB141 2018-10-09 00:29:56 20.8 36 17.3
003BB141 2018-10-08 23:28:38 20.8 36 17.2
003BB141 2018-10-08 22:27:21 20.8 36 17.2
003BB141 2018-10-08 21:26:02 20.8 36 17.1
003BB141 2018-10-08 20:24:42 20.7 36 19.6
003BB141 2018-10-08 19:23:22 20.7 36 19.6
003BB141 2018-10-08 18:22:03 20.7 36 19.6
003BB141 2018-10-08 17:20:42 20.7 36 19.7
003BB141 2018-10-08 16:19:20 20.7 35 19.6
003BB141 2018-10-08 15:18:00 20.7 35 19.6
003BB141 2018-10-08 13:15:21 20.7 35 19.6
003BB141 2018-10-08 08:08:53 20.5 32 19.6
003BB141 2018-10-08 05:04:56 20.5 33 19.6
003BB141 2018-10-08 04:03:37 20.5 34 19.6
003BB141 2018-10-08 02:01:02 20.7 35 19.6
003BB141 2018-10-08 00:59:39 20.7 35 19.7
003BB141 2018-10-07 23:58:21 20.7 36 19.7
003BB141 2018-10-07 21:55:37 20.7 37 19.6
003BB141 2018-10-07 20:54:17 20.7 37 19.7
003BB141 2018-10-07 19:52:59 20.7 38 19.6
003BB141 2018-10-07 18:51:38 20.7 38 19.6
003BB141 2018-10-07 17:50:21 20.7 38 17.2
003BB141 2018-10-07 16:49:00 20.7 38 17.3
003BB141 2018-10-07 15:47:42 20.7 38 17.2
003BB141 2018-10-07 14:46:25 20.7 38 17.2
003BB141 2018-10-07 13:45:02 20.7 38 17.2
003BB141 2018-10-07 12:43:42 20.7 38 17.3
003BB141 2018-10-07 11:42:20 20.7 38 17.3
003BB141 2018-10-07 10:41:01 20.7 38 17.3
003BB141 2018-10-07 09:39:38 20.7 38 11.4
003BB141 2018-10-07 08:38:15 20.7 38 11.3
003BB141 2018-10-07 07:36:53 20.8 38 11.4
003BB141 2018-10-07 06:35:30 20.8 39 11.4
003BB141 2018-10-07 05:34:08 20.9 39 11.5
003BB141 2018-10-07 04:32:46 20.8 39 11.5
003BB141 2018-10-07 03:31:19 20.9 39 11.3
003BB141 2018-10-07 02:29:51 21 39 11.3
003BB141 2018-10-07 01:28:28 21 40 11.3
003BB141 2018-10-07 00:27:05 21 40 11.2
003BB141 2018-10-06 23:25:41 21 40 11.1
003BB141 2018-10-06 22:24:13 21 40 10.8
003BB141 2018-10-06 20:21:25 21 40 12.4
003BB141 2018-10-06 19:20:03 21 39 12.5
003BB141 2018-10-06 18:18:42 21 39 12.5
003BB141 2018-10-06 17:17:19 21 40 12.6
003BB141 2018-10-06 16:15:55 21 40 12.7
003BB141 2018-10-06 15:14:34 21 40 12.7
003BB141 2018-10-06 14:13:12 21.1 40 12.7
003BB141 2018-10-06 13:11:50 21 40 12.8
003BB141 2018-10-06 12:10:32 21 40 12.7
003BB141 2018-10-06 10:07:50 21 40 12.9
003BB141 2018-10-06 09:06:25 21 40 12.9
003BB141 2018-10-06 08:05:03 21 40 13.1
003BB141 2018-10-06 07:03:40 21.1 40 13.1
003BB141 2018-10-06 06:02:16 21.2 41 13.4
003BB141 2018-10-06 05:00:52 21.2 41 13.5
003BB141 2018-10-06 02:58:11 21.2 42 13.6
003BB141 2018-10-06 01:56:52 21.2 42 13.7
003BB141 2018-10-05 23:54:13 21.4 43 13.8
003BB141 2018-10-05 22:52:49 21.4 43 14.2
003BB141 2018-10-05 21:51:30 21.4 44 14.6
003BB141 2018-10-05 20:50:10 21.4 44 15.1
003BB141 2018-10-05 19:48:50 21.6 45 16
003BB141 2018-10-05 18:47:33 21.6 45 17
003BB141 2018-10-05 17:46:11 21.6 46 18.6
003BB141 2018-10-05 16:44:45 21.7 47 21.4
003BB141 2018-10-05 15:43:21 21.6 53 0